TimeCDT,TemperatureF,Dew PointF,Humidity,Sea Level PressureIn,VisibilityMPH,Wind Direction,Wind SpeedMPH,Gust SpeedMPH,PrecipitationIn,Events,Conditions,WindDirDegrees,DateUTC
12:13 AM,73.4,68.0,83,30.17,7.0,Calm,Calm,-,N/A,,Clear,0,2013-07-16 05:13:00
12:34 AM,71.6,68.0,88,30.18,7.0,Calm,Calm,-,N/A,,Clear,0,2013-07-16 05:34:00
12:53 AM,71.6,68.0,88,30.18,7.0,SSE,3.5,-,N/A,,Scattered Clouds,160,2013-07-16 05:53:00
1:13 AM,69.8,66.2,88,30.19,7.0,SSE,3.5,-,N/A,,Clear,150,2013-07-16 06:13:00
1:34 AM,69.8,66.2,88,30.19,7.0,Calm,Calm,-,N/A,,Clear,0,2013-07-16 06:34:00
1:53 AM,69.8,66.2,88,30.19,7.0,Calm,Calm,-,N/A,,Clear,0,2013-07-16 06:53:00
2:13 AM,69.8,64.4,83,30.19,7.0,Calm,Calm,-,N/A,,Clear,0,2013-07-16 07:13:00
2:34 AM,68.0,64.4,88,30.18,7.0,SSE,3.5,-,N/A,,Clear,160,2013-07-16 07:34:00
2:53 AM,68.0,64.4,88,30.18,5.0,Calm,Calm,-,N/A,,Clear,0,2013-07-16 07:53:00
3:13 AM,68.0,64.4,88,30.18,5.0,Calm,Calm,-,N/A,,Clear,0,2013-07-16 08:13:00
3:33 AM,68.0,64.4,88,30.19,7.0,Calm,Calm,-,N/A,,Clear,0,2013-07-16 08:33:00
3:53 AM,68.0,64.4,88,30.18,7.0,Calm,Calm,-,N/A,,Clear,0,2013-07-16 08:53:00
4:14 AM,68.0,62.6,83,30.19,5.0,Calm,Calm,-,N/A,,Clear,0,2013-07-16 09:14:00
4:33 AM,64.4,62.6,94,30.18,2.5,Calm,Calm,-,N/A,,Clear,0,2013-07-16 09:33:00
4:53 AM,64.4,62.6,94,30.18,3.0,Calm,Calm,-,N/A,,Clear,0,2013-07-16 09:53:00
5:14 AM,68.0,64.4,88,30.18,1.2,Calm,Calm,-,N/A,,Mist,0,2013-07-16 10:14:00
5:33 AM,64.4,62.6,94,30.19,1.0,Calm,Calm,-,N/A,,Mist,0,2013-07-16 10:33:00
5:53 AM,64.4,62.6,94,30.20,0.5,Calm,Calm,-,N/A,Fog,Fog,0,2013-07-16 10:53:00
6:14 AM,64.4,62.6,94,30.20,0.2,Calm,Calm,-,N/A,Fog,Fog,0,2013-07-16 11:14:00
6:33 AM,64.4,62.6,94,30.20,1.0,Calm,Calm,-,N/A,,Mist,0,2013-07-16 11:33:00
6:53 AM,66.2,64.4,94,30.21,3.0,Calm,Calm,-,N/A,,Clear,0,2013-07-16 11:53:00
7:14 AM,68.0,64.4,88,30.22,4.0,Calm,Calm,-,N/A,,Clear,0,2013-07-16 12:14:00
7:33 AM,69.8,66.2,88,30.22,5.0,South,3.5,-,N/A,,Clear,170,2013-07-16 12:33:00
7:53 AM,71.6,68.0,88,30.22,7.0,South,3.5,-,N/A,,Clear,180,2013-07-16 12:53:00
8:14 AM,71.6,68.0,88,30.23,7.0,South,4.6,-,N/A,,Clear,190,2013-07-16 13:14:00
8:33 AM,73.4,68.0,83,30.24,7.0,South,4.6,-,N/A,,Clear,190,2013-07-16 13:33:00
8:53 AM,75.2,68.0,78,30.24,7.0,South,6.9,-,N/A,,Clear,190,2013-07-16 13:53:00
9:14 AM,77.0,68.0,74,30.24,10.0,SSW,6.9,-,N/A,,Clear,200,2013-07-16 14:14:00
9:33 AM,78.8,66.2,65,30.24,10.0,SW,9.2,-,N/A,,Clear,220,2013-07-16 14:33:00
9:53 AM,78.8,64.4,61,30.25,10.0,SSW,9.2,-,N/A,,Clear,210,2013-07-16 14:53:00
10:14 AM,80.6,66.2,61,30.25,10.0,SW,9.2,-,N/A,,Clear,220,2013-07-16 15:14:00
10:33 AM,80.6,64.4,58,30.25,10.0,SSW,6.9,-,N/A,,Clear,200,2013-07-16 15:33:00
10:53 AM,82.4,62.6,51,30.25,10.0,SW,9.2,-,N/A,,Clear,220,2013-07-16 15:53:00
11:14 AM,82.4,62.6,51,30.25,10.0,SSW,9.2,-,N/A,,Clear,210,2013-07-16 16:14:00
11:33 AM,82.4,62.6,51,30.25,10.0,SW,10.4,-,N/A,,Clear,230,2013-07-16 16:33:00
11:53 AM,82.4,62.6,51,30.25,10.0,SSW,9.2,-,N/A,,Clear,200,2013-07-16 16:53:00
12:14 PM,84.2,64.4,51,30.25,10.0,SSW,9.2,-,N/A,,Clear,210,2013-07-16 17:14:00
12:33 PM,84.2,62.6,48,30.25,10.0,SSW,9.2,-,N/A,,Clear,200,2013-07-16 17:33:00
12:53 PM,86.0,62.6,45,30.25,10.0,SW,11.5,-,N/A,,Clear,220,2013-07-16 17:53:00
1:14 PM,86.0,60.8,43,30.25,10.0,SSW,12.7,16.1,N/A,,Clear,200,2013-07-16 18:14:00
1:33 PM,86.0,62.6,45,30.25,10.0,SSW,11.5,-,N/A,,Clear,210,2013-07-16 18:33:00
1:53 PM,86.0,62.6,45,30.24,10.0,SW,15.0,20.7,N/A,,Clear,220,2013-07-16 18:53:00
2:14 PM,86.0,62.6,45,30.24,10.0,SSW,12.7,-,N/A,,Clear,210,2013-07-16 19:14:00
2:33 PM,86.0,62.6,45,30.24,10.0,SSW,12.7,18.4,N/A,,Clear,200,2013-07-16 19:33:00
2:53 PM,86.0,60.8,43,30.24,10.0,SSW,12.7,23.0,N/A,,Clear,200,2013-07-16 19:53:00
3:14 PM,86.0,62.6,45,30.24,10.0,SSW,17.3,-,N/A,,Clear,210,2013-07-16 20:14:00
3:33 PM,87.8,60.8,40,30.24,10.0,SSW,13.8,19.6,N/A,,Clear,200,2013-07-16 20:33:00
3:53 PM,87.8,62.6,43,30.24,10.0,SSW,15.0,19.6,N/A,,Clear,200,2013-07-16 20:53:00
4:13 PM,87.8,62.6,43,30.23,10.0,SSW,11.5,19.6,N/A,,Clear,210,2013-07-16 21:13:00
4:33 PM,87.8,62.6,43,30.23,10.0,SSW,11.5,-,N/A,,Clear,210,2013-07-16 21:33:00
4:54 PM,86.0,62.6,45,30.23,10.0,South,13.8,-,N/A,,Clear,190,2013-07-16 21:54:00
5:13 PM,86.0,62.6,45,30.23,10.0,SW,12.7,17.3,N/A,,Clear,220,2013-07-16 22:13:00
5:33 PM,86.0,62.6,45,30.23,10.0,SW,10.4,18.4,N/A,,Clear,220,2013-07-16 22:33:00
5:54 PM,86.0,62.6,45,30.22,10.0,SW,13.8,-,N/A,,Clear,220,2013-07-16 22:54:00
6:13 PM,86.0,62.6,45,30.22,10.0,SSW,10.4,17.3,N/A,,Clear,200,2013-07-16 23:13:00
6:33 PM,86.0,62.6,45,30.22,10.0,SSW,8.1,-,N/A,,Clear,200,2013-07-16 23:33:00
6:54 PM,86.0,64.4,48,30.22,10.0,South,10.4,-,N/A,,Clear,190,2013-07-16 23:54:00
7:13 PM,84.2,62.6,48,30.22,10.0,SSW,8.1,-,N/A,,Clear,200,2013-07-17 00:13:00
7:33 PM,82.4,64.4,54,30.22,10.0,SSW,6.9,-,N/A,,Clear,200,2013-07-17 00:33:00
7:54 PM,82.4,66.2,58,30.22,10.0,SSW,5.8,-,N/A,,Clear,200,2013-07-17 00:54:00
8:13 PM,80.6,68.0,65,30.22,10.0,SSW,5.8,-,N/A,,Clear,200,2013-07-17 01:13:00
8:33 PM,78.8,66.2,65,30.22,10.0,South,6.9,-,N/A,,Clear,190,2013-07-17 01:33:00
8:54 PM,77.0,66.2,69,30.22,10.0,South,5.8,-,N/A,,Clear,190,2013-07-17 01:54:00
9:13 PM,75.2,68.0,78,30.23,10.0,SSW,5.8,-,N/A,,Clear,200,2013-07-17 02:13:00
9:33 PM,73.4,66.2,78,30.24,10.0,South,3.5,-,N/A,,Clear,170,2013-07-17 02:33:00
9:54 PM,75.2,64.4,69,30.24,10.0,South,5.8,-,N/A,,Clear,170,2013-07-17 02:54:00
10:13 PM,71.6,64.4,78,30.25,10.0,South,3.5,-,N/A,,Clear,180,2013-07-17 03:13:00
10:33 PM,71.6,64.4,78,30.25,10.0,Calm,Calm,-,N/A,,Clear,0,2013-07-17 03:33:00
10:54 PM,69.8,64.4,83,30.25,10.0,South,4.6,-,N/A,,Clear,180,2013-07-17 03:54:00
11:13 PM,69.8,64.4,83,30.25,10.0,South,3.5,-,N/A,,Clear,170,2013-07-17 04:13:00
11:33 PM,69.8,64.4,83,30.26,10.0,Calm,Calm,-,N/A,,Clear,0,2013-07-17 04:33:00
11:54 PM,68.0,64.4,88,30.26,10.0,Calm,Calm,-,N/A,,Clear,0,2013-07-17 04:54:00